Wind_Speed
21 19 21 15 27 38 46 50 55 56 52 50 52 56 57 54 52 52 51 49 48 48 45 43 39 38 37 35 32 30 28 27 26 25 21 16 13 11 12 9 9 9 9
20 23 25 21 12 27 38 46 52 55 55 53 52 54 55 56 56 55 52 49 49 47 46 45 41 40 39 37 35 33 34 31 31 30 27 16 15 16 15 12 10 10 10
26 26 24 25 21 9 27 41 48 53 53 53 47 47 49 54 53 57 56 54 51 50 51 51 46 44 42 41 39 38 37 37 36 35 22 11 12 23 20 18 15 14 12
24 27 29 28 26 23 13 28 43 46 47 52 54 56 56 55 56 58 59 55 51 52 51 47 44 44 42 43 41 40 40 38 40 39 37 16 11 14 14 24 21 19 16
20 21 24 27 28 26 23 13 21 39 45 48 52 59 57 56 49 55 58 59 53 54 51 48 44 45 44 43 42 41 41 41 42 42 41 30 16 14 11 19 30 27 22
19 20 20 19 20 20 18 17 16 14 24 45 48 56 60 56 53 55 54 57 53 55 53 49 47 46 45 45 42 42 40 41 41 40 41 38 30 21 15 10 26 30 25
20 22 22 21 21 24 20 19 18 23 14 18 41 52 57 59 53 51 59 60 60 55 54 49 47 45 43 42 41 38 37 38 39 39 41 40 36 28 21 16 17 26 24
20 20 22 22 24 21 23 23 27 29 25 25 23 27 37 42 37 51 59 60 60 55 53 50 46 44 41 39 39 36 36 36 36 37 33 38 31 28 26 19 16 15 20
21 19 20 19 17 16 18 22 24 25 23 24 31 24 19 26 22 23 29 41 37 38 46 45 40 39 37 37 39 39 39 38 35 31 30 30 31 23 18 16 14 16 17
31 29 28 23 21 17 18 19 22 25 23 21 24 26 24 20 17 20 18 30 32 36 35 35 37 35 34 37 36 35 37 35 31 31 34 31 26 22 18 15 16 15 18
40 36 30 23 21 19 19 20 20 21 18 18 19 7 12 16 17 16 16 26 33 26 27 33 34 30 33 35 35 34 34 34 33 35 34 34 36 31 27 25 18 15 21
35 35 29 25 22 20 18 20 21 22 18 17 15 14 13 14 11 10 14 11 19 25 23 25 29 29 30 31 31 31 36 37 41 43 41 37 34 39 28 29 24 23 26
31 28 24 20 18 12 15 17 18 19 19 19 17 16 13 15 13 11 12 14 13 8 17 24 27 30 27 28 28 28 28 33 31 34 39 42 33 31 34 31 26 21 25
22 20 16 10 6 9 10 12 12 10 10 14 15 18 19 17 12 12 15 21 17 17 19 19 26 22 27 25 28 27 27 27 27 28 28 29 31 33 33 29 25 25 23
7 4 5 8 9 8 12 12 10 10 10 12 13 14 15 18 18 18 17 18 20 21 18 25 23 24 26 27 27 27 25 24 24 23 25 26 24 23 21 21 24 26 20
10 9 9 10 11 14 14 15 14 13 12 14 14 12 13 16 21 20 22 21 22 20 22 20 20 25 26 26 25 24 23 23 23 24 22 21 21 22 19 22 21 20 20
9 14 15 15 15 18 16 18 19 19 18 16 18 18 13 14 15 16 21 25 24 24 21 20 18 23 24 24 24 24 24 23 22 23 23 24 24 23 22 23 22 20 21
18 18 21 23 23 24 22 21 21 22 21 19 17 21 22 18 17 20 20 23 27 25 24 20 20 19 24 26 25 24 25 23 20 21 22 21 21 21 22 21 21 21 20
27 28 29 28 27 26 28 28 26 26 22 22 21 23 21 20 21 21 23 23 26 27 19 20 21 22 25 27 27 23 25 22 21 21 19 19 20 20 19 18 17 18 17
34 38 38 32 28 30 31 30 31 31 28 23 22 23 23 23 23 19 20 21 21 27 22 23 24 25 26 27 26 24 24 24 22 21 23 21 20 19 17 15 16 15 14
37 34 30 26 30 32 34 31 33 33 30 26 22 23 23 24 26 25 22 21 21 26 29 26 25 26 24 29 27 24 21 21 23 25 25 23 21 17 14 13 11 11 11
29 24 26 31 31 31 32 34 35 32 34 24 24 23 24 26 26 26 22 20 21 27 31 30 29 28 27 28 25 21 19 18 20 24 24 20 17 15 13 11 10 8 9
33 34 33 31 28 27 27 28 27 24 25 27 23 22 25 25 24 21 18 18 21 28 32 32 32 32 30 26 24 21 18 17 19 18 18 17 15 14 12 10 8 7 7
36 34 30 28 33 32 31 29 28 27 29 26 22 23 23 19 16 15 15 17 21 26 29 32 32 32 32 32 27 22 21 20 19 18 17 16 16 13 13 11 8 5 5
36 36 37 37 40 33 24 28 30 26 22 20 22 19 15 13 11 12 13 15 17 20 24 31 32 30 31 30 27 25 24 22 20 21 21 21 19 18 14 12 8 6 7
31 31 35 38 31 21 26 18 11 15 21 20 16 12 10 9 9 9 11 9 8 12 15 20 23 28 27 28 25 22 20 19 19 21 21 19 17 15 13 11 9 10 9
Wind_Direction
25 21 14 288 251 255 252 246 239 238 233 232 229 230 231 231 233 232 232 231 229 224 221 221 217 220 221 220 216 213 212 203 207 198 188 189 199 208 210 217 217 213 212
22 23 27 18 293 255 262 254 247 241 240 235 237 232 231 234 234 234 234 233 230 229 225 223 224 225 222 220 219 216 207 206 207 202 189 181 200 206 213 220 224 223 217
30 27 27 29 23 281 255 260 256 250 240 237 228 226 228 232 234 237 236 232 232 226 224 224 222 224 223 223 220 220 221 212 204 208 197 179 208 202 212 216 220 226 226
37 35 32 30 27 23 290 263 257 251 237 232 231 229 230 227 238 239 239 235 227 224 221 224 225 227 225 225 226 223 225 225 216 207 211 212 204 181 195 210 217 223 228
36 31 27 21 19 16 22 11 258 258 249 238 227 232 239 238 240 239 237 234 228 224 220 219 221 225 225 228 228 226 225 227 225 222 213 216 215 204 190 199 207 213 220
6 1 357 2 7 11 357 324 12 348 257 251 238 227 240 236 231 238 236 232 226 219 216 218 220 222 223 225 225 226 227 225 229 230 228 224 218 212 211 205 207 209 213
357 351 350 354 338 329 338 2 333 339 336 278 246 238 237 243 246 243 242 230 223 217 217 218 219 220 220 225 223 224 225 224 228 230 231 230 233 233 238 234 205 201 208
352 341 339 339 334 343 339 315 311 317 339 5 312 255 238 235 237 230 234 234 231 225 222 219 219 219 219 220 222 223 224 221 226 229 228 231 233 239 240 238 228 191 194
337 331 323 327 328 342 357 359 350 349 328 306 338 332 290 275 264 252 241 239 230 223 222 218 218 220 218 217 220 222 223 218 215 221 230 234 236 230 230 225 229 226 206
318 312 312 308 313 308 319 321 329 346 352 341 329 316 351 1 303 287 300 283 267 240 236 222 219 221 217 216 219 217 219 227 230 227 217 209 207 214 228 236 225 236 252
311 311 310 296 302 303 309 311 317 327 314 312 345 303 309 337 341 355 335 290 277 262 244 227 217 223 218 215 216 216 218 221 217 211 216 223 231 235 234 239 245 236 234
306 306 307 292 293 307 311 308 300 302 312 321 325 353 322 294 285 313 315 323 288 262 260 246 227 224 223 225 228 227 217 220 225 228 237 235 236 249 220 234 229 234 232
306 309 307 293 298 329 328 309 299 294 293 303 303 302 326 323 326 326 302 282 283 293 276 246 239 230 229 229 227 229 234 239 237 237 237 243 230 221 228 235 225 221 218
295 315 317 316 310 322 346 8 18 15 4 335 299 296 286 292 298 292 279 265 274 282 249 267 241 254 233 233 229 227 230 234 237 235 240 235 243 238 241 222 220 214 222
331 316 321 337 328 340 347 347 335 341 330 323 335 310 278 300 290 285 286 283 278 267 263 244 255 243 241 235 229 228 226 225 229 233 228 234 234 225 224 216 210 215 215
319 324 328 328 334 341 337 335 328 334 326 321 304 328 326 285 284 281 288 290 281 270 255 255 257 251 244 245 240 232 225 225 230 225 226 221 219 220 205 210 211 221 224
318 319 318 323 322 325 317 321 323 320 315 319 308 291 285 300 309 301 285 280 277 265 259 255 255 252 251 252 243 233 229 228 225 218 221 217 218 212 213 215 215 218 236
315 310 310 308 304 306 306 308 313 310 309 301 295 292 288 289 300 305 297 279 265 259 253 249 251 248 251 245 243 236 224 226 221 222 225 222 214 207 212 215 241 243 235
301 302 300 299 297 295 294 297 300 303 296 305 287 290 283 282 284 295 299 287 266 252 252 255 246 244 240 237 237 230 219 217 216 219 214 203 207 212 229 239 238 234 235
295 295 291 291 289 292 292 294 293 292 286 290 288 282 278 280 291 298 289 284 272 246 235 243 236 241 233 231 234 229 217 207 206 199 198 204 217 237 241 236 231 227 227
293 287 290 284 296 298 303 290 286 290 284 282 276 276 280 285 292 293 282 269 262 246 238 236 237 233 235 228 230 216 213 212 201 196 200 211 225 223 221 217 212 216 222
291 292 288 288 291 295 296 290 290 285 279 266 267 269 280 288 287 282 272 257 248 244 237 232 227 222 221 224 214 202 205 204 202 200 211 213 208 201 202 195 197 208 222
287 291 289 287 285 298 292 286 289 286 279 276 270 276 282 283 279 268 259 245 238 237 229 224 222 214 204 197 200 196 194 196 198 202 202 191 191 191 184 182 195 198 232
288 287 281 278 293 297 289 283 281 277 272 269 271 278 280 278 270 266 258 251 241 232 226 221 214 201 188 183 185 188 185 183 180 178 180 185 186 184 185 191 207 220 223
282 279 280 285 291 295 283 293 273 268 262 267 276 280 282 272 257 243 242 244 246 245 237 223 216 195 184 186 185 185 180 176 178 176 176 181 186 188 196 201 216 228 224
287 281 281 283 288 271 292 285 274 269 259 270 273 271 261 243 228 223 215 210 235 233 226 225 203 189 189 182 180 179 177 175 177 179 185 187 191 199 204 215 237 221 226
Height
1438 1435 1432 1430 1430 1431 1431 1432 1437 1436 1435 1439 1442 1446 1445 1448 1452 1455 1458 1464 1471 1473 1478 1486 1487 1492 1494 1498 1503 1506 1509 1512 1515 1519 1522 1525 1526 1528 1529 1530 1531 1532 1533
1435 1432 1429 1428 1429 1430 1430 1431 1431 1430 1432 1432 1433 1438 1441 1446 1446 1446 1450 1456 1461 1467 1472 1477 1480 1487 1489 1493 1496 1501 1503 1505 1509 1512 1517 1522 1525 1525 1526 1528 1529 1531 1532
1439 1434 1429 1427 1425 1426 1427 1424 1425 1426 1426 1429 1437 1438 1437 1437 1441 1441 1442 1444 1450 1456 1461 1466 1469 1476 1481 1486 1488 1493 1498 1499 1503 1506 1510 1513 1515 1519 1523 1524 1526 1529 1530
1442 1437 1432 1428 1424 1421 1420 1422 1422 1421 1420 1421 1422 1422 1421 1421 1422 1427 1433 1437 1440 1445 1450 1458 1464 1470 1473 1477 1482 1486 1490 1494 1497 1501 1504 1504 1506 1511 1517 1521 1522 1526 1528
1441 1439 1434 1434 1429 1425 1420 1415 1416 1419 1416 1414 1412 1413 1413 1418 1420 1419 1420 1425 1430 1435 1441 1447 1453 1458 1463 1470 1475 1481 1483 1487 1492 1494 1498 1500 1502 1505 1507 1510 1515 1520 1524
1442 1439 1434 1430 1429 1424 1421 1419 1414 1409 1407 1409 1409 1404 1407 1407 1409 1410 1409 1414 1419 1424 1427 1434 1440 1446 1453 1460 1465 1474 1478 1481 1486 1490 1494 1496 1497 1500 1504 1506 1510 1515 1520
1445 1440 1436 1429 1426 1422 1418 1418 1414 1413 1404 1404 1405 1402 1400 1401 1396 1398 1398 1400 1400 1407 1415 1422 1427 1434 1442 1451 1458 1466 1471 1475 1480 1486 1490 1494 1496 1499 1502 1505 1507 1509 1515
1444 1439 1434 1430 1427 1419 1418 1415 1412 1408 1408 1404 1404 1400 1397 1396 1394 1369 1382 1390 1397 1396 1402 1409 1417 1425 1433 1443 1450 1456 1463 1468 1474 1480 1485 1489 1493 1496 1498 1501 1503 1509 1510
1441 1438 1434 1430 1426 1424 1417 1412 1412 1406 1406 1403 1399 1406 1393 1396 1393 1395 1396 1385 1389 1385 1393 1402 1411 1419 1426 1435 1443 1448 1452 1458 1465 1470 1476 1482 1489 1491 1493 1495 1499 1504 1506
1440 1437 1435 1432 1427 1424 1420 1416 1413 1408 1405 1407 1399 1398 1399 1398 1392 1398 1397 1398 1399 1396 1394 1401 1410 1415 1421 1428 1435 1441 1446 1452 1456 1462 1472 1471 1479 1480 1487 1493 1497 1499 1502
1437 1433 1430 1429 1425 1422 1420 1417 1412 1410 1409 1409 1402 1397 1398 1396 1404 1399 1392 1398 1400 1399 1399 1404 1406 1410 1415 1422 1428 1434 1440 1444 1450 1457 1461 1466 1472 1477 1480 1490 1492 1493 1499
1433 1429 1424 1424 1422 1419 1416 1414 1413 1410 1409 1406 1401 1400 1404 1404 1395 1387 1396 1401 1399 1400 1404 1407 1408 1409 1413 1417 1422 1427 1433 1438 1443 1448 1452 1460 1463 1468 1474 1479 1483 1488 1493
1429 1425 1421 1419 1420 1418 1413 1409 1408 1406 1406 1402 1401 1402 1399 1401 1395 1387 1394 1400 1398 1395 1401 1404 1407 1408 1409 1414 1417 1422 1427 1431 1435 1440 1445 1451 1456 1461 1466 1471 1476 1481 1486
1426 1424 1419 1417 1416 1416 1413 1410 1407 1403 1400 1397 1397 1397 1398 1397 1395 1394 1394 1396 1393 1393 1396 1400 1403 1406 1406 1410 1415 1417 1422 1428 1432 1437 1442 1447 1451 1456 1461 1465 1470 1477 1479
1423 1419 1419 1418 1416 1414 1412 1409 1407 1404 1400 1398 1394 1394 1395 1395 1395 1391 1389 1389 1390 1393 1392 1394 1400 1399 1404 1406 1409 1414 1419 1422 1427 1433 1438 1443 1448 1453 1458 1462 1467 1472 1475
1424 1421 1419 1417 1414 1411 1408 1406 1405 1402 1399 1397 1396 1393 1390 1389 1390 1388 1386 1386 1388 1388 1389 1390 1392 1397 1401 1405 1408 1413 1416 1420 1424 1431 1436 1439 1445 1450 1455 1461 1466 1470 1472
1419 1419 1417 1414 1411 1408 1405 1402 1399 1396 1395 1394 1393 1392 1390 1389 1387 1385 1384 1383 1385 1387 1386 1387 1386 1395 1399 1401 1405 1410 1414 1417 1421 1426 1432 1434 1439 1446 1453 1458 1462 1466 1468
1416 1413 1412 1410 1407 1404 1401 1397 1394 1391 1389 1387 1386 1385 1385 1383 1381 1382 1383 1382 1383 1382 1384 1385 1386 1390 1396 1399 1401 1407 1412 1416 1419 1424 1428 1432 1438 1444 1451 1456 1459 1462 1465
1411 1407 1405 1403 1400 1398 1396 1392 1389 1387 1385 1383 1382 1382 1379 1379 1380 1379 1377 1376 1375 1378 1379 1380 1382 1385 1392 1395 1398 1402 1408 1413 1416 1422 1427 1431 1439 1443 1448 1452 1455 1459 1462
1405 1401 1398 1396 1394 1392 1390 1386 1383 1381 1378 1377 1375 1375 1375 1374 1373 1372 1371 1370 1370 1373 1372 1374 1378 1383 1388 1389 1393 1397 1405 1409 1412 1419 1426 1431 1437 1442 1444 1449 1452 1454 1459
1396 1392 1390 1388 1386 1383 1380 1377 1375 1373 1371 1370 1368 1368 1367 1366 1366 1364 1363 1363 1362 1364 1366 1370 1373 1378 1384 1388 1390 1393 1401 1406 1409 1415 1422 1430 1435 1439 1441 1446 1449 1454 1455
1387 1385 1382 1380 1377 1375 1372 1368 1366 1365 1363 1362 1362 1361 1360 1358 1357 1356 1356 1356 1357 1359 1361 1366 1369 1373 1378 1384 1389 1393 1399 1403 1406 1411 1421 1427 1433 1437 1441 1440 1446 1451 1455
1379 1377 1374 1370 1368 1367 1364 1361 1360 1358 1358 1357 1356 1355 1353 1351 1349 1349 1348 1350 1352 1354 1356 1359 1363 1366 1373 1380 1387 1390 1396 1400 1405 1411 1420 1425 1430 1434 1439 1440 1444 1444 1451
1370 1368 1365 1362 1359 1359 1356 1354 1352 1352 1351 1350 1349 1348 1345 1344 1344 1343 1344 1345 1345 1348 1350 1353 1357 1365 1370 1373 1380 1388 1394 1400 1404 1411 1417 1424 1428 1433 1435 1437 1443 1442 1445
1360 1358 1356 1353 1350 1350 1348 1346 1344 1344 1345 1344 1342 1340 1339 1339 1339 1340 1341 1341 1342 1344 1346 1349 1353 1359 1366 1372 1378 1386 1391 1397 1403 1409 1413 1419 1426 1428 1433 1435 1437 1437 1442
1351 1349 1347 1344 1343 1342 1340 1337 1338 1339 1340 1339 1337 1336 1335 1335 1335 1336 1337 1339 1341 1343 1346 1351 1354 1358 1367 1374 1379 1387 1393 1398 1402 1407 1412 1414 1421 1428 1430 1433 1432 1434 1440